Location: Arpaise
(41.0333°N, 14.7333°E)
Time: 07:59:22
(UTC+00:00)

CZ-4B DEB - Pass Details

Date: 05 July 2020
Orbit: 436 x 443 km, 97.3° (Epoch: 05 August)

Event Time Altitude Azimuth Distance (km) Brightness Sun altitude
Exits shadow 20:27:05 40° 155° (SSE) 670 4.7 -16.4°
Maximum altitude 20:28:10 77° 77° (ENE) 462 4.3 -16.5°
Drops below altitude 10° 20:31:32 10° 351° (N) 1,577 8.1 -16.9°
Sets 20:33:35 0° 350° (N) 2,454 9.3 -17.2°
